Temp
20 20 19 19 19 19 19 20 19 19 19 19 19 18 19 19 19 20 17 15 15 15 15 16 16 16 16 16 16 16 15 15 15 15 15 15 14 14 14 14 14 14 13
20 20 20 20 19 19 20 20 20 19 19 19 18 18 19 18 18 19 18 15 15 15 14 14 14 15 15 15 15 15 15 15 14 14 14 14 14 14 14 13 13 12 12
20 20 20 20 19 18 19 19 19 19 19 19 19 18 18 18 18 18 18 17 15 14 14 14 14 14 14 13 13 14 14 14 13 13 13 13 12 13 12 12 11 11 11
20 20 20 19 19 18 19 19 18 19 19 19 19 19 19 19 18 17 18 18 17 16 14 13 14 13 13 13 12 12 12 12 12 12 11 11 11 11 10 11 11 11 11
20 20 20 20 18 17 18 18 18 18 19 19 19 19 19 19 18 18 18 17 17 17 16 13 13 13 13 12 12 12 12 11 11 11 11 11 10 10 10 10 11 10 10
20 20 21 20 17 16 16 17 16 17 19 19 19 19 18 19 18 18 18 17 17 17 17 15 13 13 12 12 12 12 12 11 12 11 11 10 10 10 10 10 10 10 10
20 19 20 18 16 16 15 16 16 16 18 19 19 18 18 17 18 18 18 18 17 16 16 16 16 16 13 12 12 12 12 12 12 11 11 10 10 10 10 10 10 10 9
19 19 19 17 16 15 15 16 17 17 18 18 19 18 19 17 17 17 18 18 17 17 16 16 16 16 16 14 13 12 12 12 12 12 11 10 10 10 10 10 10 10 9
19 19 18 16 16 15 15 16 16 17 18 18 18 19 21 21 19 18 17 18 17 17 17 16 16 16 16 16 14 13 12 12 12 12 11 11 10 10 10 10 10 9 9
18 18 17 16 16 15 16 15 16 16 17 17 17 19 21 23 21 19 18 17 17 16 16 17 16 16 15 16 15 14 13 12 12 12 12 11 11 10 10 10 9 10 9
17 17 17 16 16 16 17 16 15 15 17 18 17 18 19 19 21 23 21 18 17 17 17 16 17 16 15 15 16 15 13 13 12 12 12 12 11 11 10 10 9 9 9
17 17 16 16 16 16 16 15 15 15 16 18 17 18 20 20 21 22 24 20 19 18 18 17 16 16 16 16 15 15 14 13 13 12 12 12 12 11 11 10 10 9 9
17 17 16 16 16 16 16 15 15 14 15 17 17 18 19 20 21 21 23 22 20 19 17 17 17 16 16 16 15 14 14 14 14 13 12 12 12 11 11 11 10 10 9
18 17 16 16 16 16 16 15 15 15 14 15 17 17 18 19 19 21 21 23 21 21 18 18 17 17 17 16 16 15 14 13 14 14 13 12 12 11 11 11 11 10 10
18 17 17 16 16 15 15 15 15 15 15 15 16 16 17 18 18 19 19 21 21 22 21 18 18 17 17 17 16 15 14 14 15 14 14 13 12 12 11 11 11 11 10
17 17 17 16 16 15 15 15 15 15 14 15 15 16 16 18 17 17 18 18 19 21 23 23 19 19 17 17 17 15 14 13 14 14 14 14 13 12 12 11 11 11 11
17 17 17 16 16 15 15 15 15 14 14 14 14 14 15 16 17 16 16 16 17 17 20 20 21 18 17 16 17 15 14 14 14 13 14 14 13 13 12 12 11 11 11
17 17 17 16 16 15 15 15 15 14 14 14 14 14 14 14 15 16 16 16 16 17 17 18 19 20 17 16 16 15 14 14 15 14 14 14 14 14 13 12 11 11 11
9 14 15 16 16 15 15 15 14 14 14 14 14 13 13 13 13 14 15 15 15 16 17 17 18 19 18 16 15 15 14 14 14 14 13 13 13 13 13 12 12 11 11
7 8 9 11 12 14 15 15 14 14 14 14 14 13 13 13 13 13 13 14 15 15 15 16 16 14 14 13 14 14 14 14 14 13 12 12 14 14 13 12 12 11 11
7 6 6 7 8 9 10 13 13 15 15 14 14 14 14 14 14 13 13 13 13 13 13 13 14 13 12 12 12 13 13 14 12 12 11 11 12 12 13 12 11 11 11
5 6 6 6 6 6 7 9 11 11 14 14 14 14 14 14 14 14 14 14 13 13 12 12 12 12 13 12 12 12 12 12 11 12 11 11 11 11 13 12 13 12 12
5 5 5 5 6 5 6 6 7 7 10 11 13 14 14 14 14 13 14 14 14 14 15 13 13 13 14 13 12 11 11 11 12 13 11 10 10 10 10 10 11 11 11
4 4 4 5 5 5 7 6 7 6 8 8 8 11 12 12 13 13 13 13 13 13 13 13 13 14 14 14 12 13 12 11 11 11 11 9 11 10 10 11 11 11 10
2 3 3 4 5 6 5 8 7 6 7 8 8 9 10 10 10 11 12 12 12 12 12 13 13 14 13 13 13 12 11 10 9 9 10 10 9 9 9 11 11 10 9
1 1 4 3 4 5 6 7 7 7 6 7 8 8 9 9 10 9 10 10 11 12 12 12 12 12 12 12 12 12 11 10 9 6 10 8 9 8 7 8 9 8 7
Height
804 810 817 822 826 833 837 840 845 848 851 854 856 858 860 862 864 866 868 870 873 875 878 880 882 883 885 887 888 890 892 894 895 897 898 899 900 901 902 903 904 905 906
799 806 812 817 822 828 834 838 842 846 849 852 855 857 860 862 864 866 868 871 873 875 877 879 880 882 885 887 888 890 891 893 894 896 898 899 900 901 903 904 905 906 907
793 799 806 811 817 823 829 835 840 844 847 850 853 856 859 861 864 866 868 870 872 874 876 878 880 881 883 885 887 890 891 892 894 896 897 898 899 901 902 903 904 906 907
787 793 799 805 811 818 825 830 835 840 844 848 851 854 857 860 862 865 867 870 872 873 875 877 879 880 882 884 886 888 890 892 893 895 896 896 897 899 901 903 905 906 907
781 787 792 798 803 812 819 825 831 836 841 845 849 852 855 858 861 863 866 868 870 872 874 875 878 880 882 884 886 888 890 891 893 894 895 897 898 899 901 903 904 906 907
777 781 788 793 797 805 813 820 826 832 837 842 847 850 853 856 858 861 863 866 869 871 873 874 876 878 880 882 884 886 888 890 892 894 895 896 898 899 901 902 904 906 908
770 775 781 787 791 797 803 813 820 828 835 839 844 849 853 855 856 858 860 863 866 868 870 873 875 877 878 879 882 884 886 888 890 892 893 895 897 898 900 902 903 905 907
763 769 772 777 784 791 797 805 813 821 830 834 837 845 848 854 853 854 856 859 861 864 866 869 871 873 875 877 879 881 883 886 888 890 891 892 894 896 899 901 903 904 906
753 761 767 770 776 783 791 797 806 814 821 827 832 832 835 833 842 848 851 853 856 858 861 864 866 869 872 874 876 877 880 883 885 887 889 891 893 895 897 899 901 903 905
745 752 759 763 770 776 786 792 797 807 814 817 824 825 824 823 828 839 844 847 850 852 855 858 861 864 866 869 871 873 874 878 881 884 886 888 890 892 894 897 899 901 903
734 741 747 754 760 768 775 782 793 801 804 809 811 815 819 823 821 822 828 837 843 844 848 852 855 858 860 863 865 867 869 872 875 879 882 884 887 889 891 893 895 898 900
722 729 736 742 749 757 767 773 781 790 795 800 806 809 810 811 812 815 814 826 831 835 839 844 847 850 853 855 858 860 861 864 867 871 874 877 880 883 885 888 891 894 896
712 717 724 732 740 746 754 763 770 779 785 790 795 799 804 805 810 813 814 817 823 828 834 836 839 843 846 848 850 852 855 857 861 864 867 869 871 875 879 882 884 887 890
700 706 713 719 729 737 746 753 760 768 777 782 786 790 794 799 803 805 808 810 817 819 827 826 831 834 836 839 841 843 847 849 852 856 859 862 865 869 873 876 878 881 884
693 698 704 711 719 726 735 742 749 757 764 769 775 781 784 789 794 798 802 805 808 810 814 820 822 824 828 832 834 837 839 840 842 847 851 855 859 863 866 869 872 875 878
684 690 696 703 713 719 724 731 739 746 753 759 765 772 776 780 784 790 793 798 803 805 803 807 812 817 821 823 826 828 830 832 835 838 841 844 849 854 857 861 865 869 872
678 683 689 697 703 711 717 723 729 735 743 750 755 761 765 771 776 780 785 791 795 800 802 802 805 809 813 816 819 821 825 827 827 828 833 837 841 846 850 852 856 861 865
672 678 684 691 696 703 709 716 723 728 733 740 746 752 757 763 767 772 778 781 785 791 796 797 801 803 804 809 812 816 817 820 822 822 822 828 831 834 838 844 849 851 854
673 674 676 683 688 693 701 707 713 720 725 731 736 742 747 754 758 763 768 773 778 782 787 792 794 796 799 804 807 809 811 815 815 818 819 819 822 826 830 833 837 841 846
683 683 682 679 685 690 695 699 704 710 715 721 728 735 739 743 748 753 759 763 769 774 778 783 787 791 794 797 800 804 806 807 811 811 811 813 815 819 822 824 828 831 836
692 693 694 685 689 687 690 689 694 702 696 710 719 725 731 735 740 746 750 755 761 766 770 775 779 783 786 789 790 794 798 801 802 807 806 805 806 808 811 813 816 820 823
698 701 706 697 691 689 690 683 688 698 700 705 712 719 722 725 728 738 742 745 749 751 760 766 768 769 770 777 780 786 791 794 801 796 797 797 798 797 799 801 804 807 811
707 704 715 721 703 709 683 702 699 702 703 703 709 710 713 719 725 730 735 737 739 741 748 750 757 756 759 768 777 779 780 778 782 782 783 789 790 787 788 792 793 798 802
708 712 713 716 707 707 702 707 703 707 705 709 712 710 712 713 718 721 726 730 732 735 739 740 743 745 753 761 763 766 767 769 771 776 781 782 782 782 783 782 786 789 794
719 722 709 724 713 714 710 708 711 710 716 708 713 710 711 712 712 715 719 722 724 727 731 733 736 740 746 751 755 759 760 763 767 770 772 777 775 775 775 774 778 782 787
718 712 727 716 716 712 715 709 716 716 720 710 712 716 714 713 709 712 715 718 718 719 723 725 728 732 737 742 745 747 750 755 757 761 762 767 765 769 771 772 775 777 780
Wind_Speed
31 30 27 28 27 28 28 27 23 21 19 17 17 15 14 11 12 11 15 22 20 19 17 17 17 17 16 15 14 13 12 11 12 11 10 9 10 10 10 8 6 5 4
33 31 30 29 28 29 27 26 24 22 20 18 17 15 14 12 12 11 13 17 19 20 18 17 16 16 15 14 14 14 15 14 14 12 11 10 10 9 9 8 7 6 6
36 34 32 31 30 30 28 26 23 21 19 18 18 16 14 13 12 12 13 13 16 16 16 17 17 17 15 14 13 15 15 15 13 13 12 13 12 12 11 11 9 10 10
37 36 34 32 31 31 30 28 26 24 21 20 19 17 15 14 13 13 12 13 13 13 15 15 17 16 16 15 13 13 12 12 12 11 11 12 12 12 10 12 11 13 11
39 38 35 33 34 32 31 29 27 24 22 20 19 17 16 15 14 13 13 13 13 13 12 16 15 14 14 14 13 13 13 13 12 12 11 12 12 13 14 13 13 13 12
39 39 35 33 36 33 30 29 27 23 22 21 18 17 16 15 15 14 14 14 13 14 13 13 15 14 16 15 15 15 15 14 14 13 13 13 13 13 14 13 14 12 11
41 40 36 34 38 35 35 31 25 25 22 22 20 17 14 14 15 16 16 15 15 15 14 14 15 14 16 18 17 16 16 15 16 15 15 15 14 14 14 14 14 13 13
41 42 39 39 37 34 36 38 34 28 27 27 23 19 7 11 18 19 18 18 17 17 17 17 17 16 15 17 18 20 19 17 17 17 17 16 17 16 15 15 15 14 14
44 42 41 42 39 37 39 42 36 34 30 30 29 16 7 7 16 20 23 21 20 20 19 19 19 19 18 17 18 21 23 20 20 18 19 18 17 17 17 16 17 16 15
44 45 43 45 42 38 39 43 44 41 33 33 35 33 16 10 8 6 22 25 23 24 23 22 22 22 21 20 20 21 24 27 26 23 22 21 20 20 18 18 18 18 17
45 47 47 49 48 44 48 44 41 40 41 33 38 34 26 17 16 13 8 21 26 27 26 25 24 24 24 24 23 24 28 27 30 28 26 23 21 20 21 21 21 21 19
43 49 50 51 52 52 46 45 45 43 41 37 33 33 34 28 21 14 9 18 22 28 28 27 28 26 26 27 27 27 31 32 30 32 31 29 27 25 25 25 24 23 22
37 43 50 50 51 52 53 48 45 44 45 43 38 37 33 33 25 23 17 15 9 17 21 28 28 28 28 28 28 32 33 34 34 35 35 34 33 31 28 27 27 27 26
38 43 49 50 51 51 49 49 48 48 43 43 40 37 35 33 32 25 24 18 7 15 18 16 28 29 29 30 30 32 33 37 36 37 38 38 37 35 33 31 30 29 30
36 36 48 48 49 51 50 49 48 48 47 47 44 39 39 33 33 32 25 27 21 11 12 20 13 28 28 28 30 31 31 34 39 40 40 41 41 40 39 37 35 33 33
33 35 41 45 46 47 50 49 47 45 44 43 43 41 38 37 33 33 32 29 27 25 13 21 23 17 26 26 28 32 31 34 37 39 44 45 44 44 44 43 42 38 35
31 33 38 41 43 44 46 45 45 42 43 42 40 40 41 38 33 31 30 31 30 28 22 25 23 21 21 25 24 27 28 29 30 40 44 46 46 47 47 47 46 44 42
25 34 38 38 40 42 44 44 42 39 43 40 39 38 39 36 37 32 30 31 32 31 28 24 23 24 24 24 23 23 24 25 26 28 33 43 47 49 50 50 50 49 48
23 11 18 35 39 42 43 44 44 40 40 41 40 40 39 36 35 34 31 29 29 27 29 26 21 23 22 21 20 23 23 21 22 25 28 30 35 48 51 52 53 54 53
32 28 22 17 11 21 31 41 42 39 41 39 37 38 39 38 37 36 34 32 30 28 27 24 22 12 15 18 18 20 21 22 22 20 26 33 31 32 41 50 53 56 55
31 29 26 25 21 17 11 11 7 30 33 34 36 38 41 40 39 38 36 33 31 26 22 23 21 18 18 14 22 23 22 23 25 27 22 25 30 32 35 38 45 51 55
28 26 23 24 25 22 17 17 4 5 20 29 31 35 38 43 39 45 45 41 41 33 30 28 25 21 26 28 23 27 25 17 10 31 26 30 31 33 36 37 41 43 46
25 25 19 14 17 14 23 16 11 8 1 5 23 23 25 31 41 41 46 48 44 44 46 39 32 30 30 30 29 28 29 28 31 24 17 22 31 34 35 34 36 36 38
22 23 22 21 18 16 14 10 14 10 7 7 8 10 16 16 28 35 39 47 45 46 49 44 39 35 34 31 37 40 36 36 27 28 25 16 25 30 28 26 28 27 30
19 16 18 17 14 12 14 11 10 4 4 5 9 6 7 11 11 14 27 30 33 35 40 45 43 43 38 38 37 32 27 23 13 19 30 23 15 20 22 23 26 28 27
14 17 17 20 13 10 10 12 13 11 10 3 6 8 9 9 9 13 13 19 21 28 32 33 33 37 43 35 35 37 33 26 12 9 23 23 17 13 2 15 27 28 26
Wind_Direction
182 184 182 179 181 182 184 184 185 184 180 179 178 174 169 166 161 156 164 172 169 164 168 166 169 170 172 175 176 176 173 172 164 164 163 149 142 146 145 147 154 157 161
184 185 182 182 182 185 187 187 188 187 182 181 179 178 173 168 164 160 165 175 177 178 175 173 171 173 176 181 181 179 177 173 178 175 171 170 170 175 176 186 187 189 161
186 185 184 183 183 184 185 187 188 187 184 183 182 180 178 173 170 165 163 172 182 182 182 183 185 182 182 181 182 186 184 186 188 187 185 186 190 195 199 198 181 157 152
190 185 186 184 182 182 186 187 187 186 186 186 183 183 183 181 178 173 170 172 177 180 185 184 188 190 193 192 186 183 184 187 187 188 176 187 173 171 157 149 156 156 152
193 190 188 185 180 182 186 187 187 187 185 188 186 186 187 187 184 181 181 179 181 181 183 195 194 194 189 186 182 181 182 181 175 172 170 167 157 157 154 160 159 163 162
199 194 192 186 179 179 183 184 183 184 187 187 190 189 192 192 191 191 190 188 190 187 185 189 191 199 193 191 185 185 185 181 181 178 178 173 171 169 165 167 173 174 173
200 196 193 187 182 181 180 179 177 177 190 191 185 189 196 200 200 200 197 195 196 195 194 193 194 197 204 199 199 193 193 191 189 189 188 185 182 180 179 177 182 188 184
202 196 192 187 184 178 180 185 186 188 199 193 191 180 193 207 215 209 204 202 201 200 202 201 202 202 202 204 207 202 200 198 199 197 196 197 191 191 192 191 187 189 193
200 198 195 188 183 180 183 191 189 190 192 193 196 183 176 211 187 210 209 206 206 205 206 207 207 208 206 207 210 212 204 201 210 207 201 206 198 203 199 198 195 198 198
200 197 194 190 188 185 187 194 196 198 192 193 198 210 214 202 180 177 210 211 209 211 210 209 211 211 211 210 211 212 213 201 211 210 216 210 210 212 204 203 203 206 205
198 196 193 192 192 193 198 198 199 200 202 200 201 200 207 203 211 188 178 201 212 214 214 213 212 214 214 213 214 215 217 214 208 210 218 224 219 215 213 209 209 209 207
197 197 194 194 195 196 199 199 200 202 203 207 206 205 206 203 199 206 206 188 206 211 212 213 215 215 216 217 216 216 222 218 214 212 213 218 223 223 220 217 216 214 212
196 197 194 195 196 196 199 200 198 202 203 206 208 210 211 214 213 213 212 181 198 202 212 216 217 217 219 220 221 219 223 224 218 218 217 217 219 221 222 223 221 214 213
201 195 194 194 196 197 198 199 202 206 206 210 212 209 213 215 213 214 216 215 208 193 204 206 215 218 219 221 221 223 222 228 223 221 221 223 223 223 224 225 225 222 217
200 196 195 196 196 195 195 197 200 203 205 209 213 212 212 213 215 215 210 215 212 212 214 210 204 215 217 221 223 221 222 229 229 224 225 225 226 227 228 228 229 225 222
193 195 196 196 198 197 196 197 202 204 206 207 209 211 212 215 213 214 213 212 221 234 245 223 212 215 215 219 224 220 222 224 231 231 228 228 227 228 230 231 231 229 228
192 198 197 197 194 196 197 199 203 202 202 205 207 209 213 213 215 212 212 214 218 221 238 240 246 212 213 219 220 223 224 224 229 234 232 230 232 232 232 233 233 232 232
203 205 200 200 198 198 196 199 200 200 201 204 205 207 212 211 215 215 215 214 215 219 225 238 228 232 211 221 220 221 222 225 229 238 239 235 233 234 235 236 236 235 235
59 144 192 203 197 195 197 199 199 200 202 204 204 205 209 208 211 212 212 214 215 216 223 233 236 228 220 220 219 220 220 227 229 232 244 244 240 236 236 238 239 239 238
41 43 58 106 126 194 201 198 198 201 201 202 205 210 212 208 209 208 210 212 213 213 214 221 225 210 204 210 211 216 221 227 235 231 240 245 247 243 238 240 242 243 241
42 38 29 58 68 85 65 155 184 209 202 201 207 211 213 215 214 212 208 209 209 206 206 212 216 220 214 196 204 219 221 231 235 233 237 248 248 243 242 239 241 243 243
36 38 31 36 43 41 45 56 111 258 210 204 205 213 213 215 224 222 222 218 212 203 206 206 212 216 224 225 223 210 216 218 243 243 230 243 243 247 252 245 246 244 244
20 27 16 12 46 26 47 22 41 20 4 221 203 203 215 214 214 219 227 229 224 220 225 214 216 220 228 225 216 214 220 209 227 241 217 233 240 240 249 250 252 254 251
10 5 0 352 13 6 28 15 30 359 7 326 272 215 220 216 222 226 227 223 220 218 219 217 222 233 232 235 228 233 225 226 238 233 230 215 240 242 249 253 260 263 257
344 339 355 324 354 342 336 354 353 3 294 334 302 292 242 229 215 214 220 219 224 228 232 230 234 241 233 232 236 230 215 199 203 216 225 223 228 237 250 259 262 259 255
335 337 312 330 322 324 317 318 290 300 283 299 294 274 261 244 233 237 237 235 225 227 234 241 241 243 237 234 230 238 227 210 191 196 226 207 222 223 251 246 246 244 245